Waarnemingen

Advertentie
Mijn weer
Ronchi Dei Legionari, Italië (16108): temperatuur & dauwpunt: 09.08.2018 01:00:00 - 15.08.2018 01:00:00 (CEST)Ronchi Dei Legionari, Italië (16108): windsnelheid: 09.08.2018 01:00:00 - 15.08.2018 01:00:00 (CEST)Ronchi Dei Legionari, Italië (16108): windrichting: 09.08.2018 01:00:00 - 15.08.2018 01:00:00 (CEST)Ronchi Dei Legionari, Italië (16108): luchtdruk: 09.08.2018 01:00:00 - 15.08.2018 01:00:00 (CEST)Ronchi Dei Legionari, Italië (16108): zicht: 09.08.2018 01:00:00 - 15.08.2018 01:00:00 (CEST)Ronchi Dei Legionari, Italië (16108): neerslag: 09.08.2018 01:00:00 - 15.08.2018 01:00:00 (CEST)
Datum & Tijd tt [°C] td [°C] ff [km/u] ff [kn] dd ppp [hPa] vv [km] rr [mm]
15.08.2018 01:00:00 20,0 19,0 4 2 - - 10 -
15.08.2018 00:00:00 20,0 19,0 5 3 NNW - 10 -
14.08.2018 23:00:00 20,0 19,1 8 4 NW 1014,1 10 0,0
14.08.2018 22:00:00 21,0 19,0 11 6 NO - 10 -
14.08.2018 21:00:00 20,0 19,0 13 7 NNW - 10 -
14.08.2018 20:00:00 20,5 19,3 13 7 NNO 1013,0 10 -
14.08.2018 19:00:00 21,0 20,0 13 7 NNO - 10 -
14.08.2018 18:00:00 20,0 19,0 28 15 O - 3,0 -
14.08.2018 17:00:00 25,7 20,8 29 16 ZO 1010,8 10 0,0
14.08.2018 16:00:00 28,0 20,0 11 6 WZW - 10 -
14.08.2018 15:00:00 28,0 19,0 8 4 ZO - 10 -
14.08.2018 14:00:00 28,2 19,0 5 3 - 1011,5 10 -
14.08.2018 13:00:00 27,0 18,0 4 2 - - 10 -
14.08.2018 12:00:00 26,0 18,0 5 3 - - 10 -
14.08.2018 11:00:00 24,8 19,7 5 3 ONO 1012,0 10 0,0
14.08.2018 10:00:00 23,0 20,0 5 3 N - 10 -
14.08.2018 09:00:00 21,0 20,0 5 3 N - 10 -
14.08.2018 08:00:00 20,5 19,3 4 2 - 1011,6 10 -
14.08.2018 07:00:00 20,0 20,0 5 3 NO - 9 -
14.08.2018 06:00:00 20,0 20,0 5 3 NNO - 10 -
14.08.2018 05:00:00 20,1 19,5 8 4 NNW 1010,8 10 0,0
14.08.2018 04:00:00 21,0 20,0 5 3 Z - 7 -
14.08.2018 03:00:00 20,0 19,0 4 2 - - 10 -
14.08.2018 02:00:00 20,3 19,0 4 2 - 1010,2 10 -
14.08.2018 01:00:00 20,0 19,0 4 2 - - 10 -
14.08.2018 00:00:00 22,0 18,0 5 3 WNW - 10 -
13.08.2018 23:00:00 22,7 17,2 13 7 NNW 1010,9 10 0,0
13.08.2018 22:00:00 23,0 19,0 8 4 WNW - 10 -
13.08.2018 21:00:00 24,0 19,0 2 1 - - 10 -
13.08.2018 20:00:00 25,7 18,0 5 3 NO 1009,7 10 -
13.08.2018 19:00:00 28,0 21,0 11 6 W - 10 -
13.08.2018 18:00:00 29,0 20,0 18 10 ZW - 10 -
13.08.2018 17:00:00 30,3 19,4 11 6 Z 1010,0 10 0,0
13.08.2018 16:00:00 30,0 20,0 15 8 ZZW - 10 -
13.08.2018 15:00:00 31,0 19,0 13 7 ZZW - 10 -
13.08.2018 14:00:00 30,1 20,6 11 6 Z 1012,2 10 -
13.08.2018 13:00:00 30,0 20,0 13 7 ZZW - 10 -
13.08.2018 12:00:00 30,0 20,0 9 5 Z - 10 -
13.08.2018 11:00:00 28,5 20,2 5 3 - 1013,4 10 0,0
13.08.2018 10:00:00 27,0 19,0 5 3 ZZW - 10 -
13.08.2018 09:00:00 25,0 19,0 4 2 - - 10 -
13.08.2018 08:00:00 22,2 17,9 4 2 - 1013,5 10 -
13.08.2018 07:00:00 20,0 17,0 8 4 O - 10 -
13.08.2018 06:00:00 19,0 17,0 4 2 NO - 10 -
13.08.2018 05:00:00 19,6 17,0 4 2 - 1013,3 10 0,0
13.08.2018 04:00:00 20,0 17,0 5 3 O - 10 -
13.08.2018 03:00:00 20,0 18,0 4 2 - - 10 -
13.08.2018 02:00:00 21,6 17,6 5 3 O 1014,6 10 -
13.08.2018 01:00:00 22,0 19,0 4 2 N - 10 -
13.08.2018 00:00:00 23,0 19,0 5 3 O - 10 -
12.08.2018 23:00:00 23,8 19,1 9 5 OZO 1014,7 10 0,0
12.08.2018 22:00:00 25,0 20,0 9 5 O - 10 -
12.08.2018 21:00:00 27,0 20,0 4 2 Z - 10 -
12.08.2018 20:00:00 28,7 17,9 9 5 ZW 1014,4 10 -
12.08.2018 19:00:00 31,0 16,0 15 8 WZW - 10 -
12.08.2018 18:00:00 31,0 15,0 16 9 WZW - 10 -
12.08.2018 17:00:00 31,8 14,7 16 9 WZW 1014,9 10 0,0
12.08.2018 16:00:00 33,0 15,0 11 6 Z - 10 -
12.08.2018 15:00:00 32,0 15,0 11 6 ZZW - 10 -
12.08.2018 14:00:00 31,7 14,5 11 6 Z 1017,1 10 -
12.08.2018 13:00:00 31,0 14,0 15 8 O - 10 -
12.08.2018 12:00:00 30,0 15,0 22 12 OZO - 10 -
12.08.2018 11:00:00 29,9 14,6 22 12 O 1018,1 10 0,0
12.08.2018 10:00:00 28,0 14,0 24 13 O - 10 -
12.08.2018 09:00:00 27,0 14,0 16 9 O - 10 -
12.08.2018 08:00:00 26,2 13,9 16 9 O 1018,2 10 -
12.08.2018 07:00:00 25,0 14,0 16 9 O - 10 -
12.08.2018 06:00:00 25,0 15,0 13 7 ONO - 10 -
12.08.2018 05:00:00 24,7 16,5 11 6 ONO 1018,0 10 0,0
12.08.2018 04:00:00 25,0 17,0 9 5 ONO - 10 -
12.08.2018 03:00:00 26,0 17,0 11 6 O - 10 -
12.08.2018 02:00:00 26,2 16,5 21 11 O 1017,8 10 -
12.08.2018 01:00:00 26,0 17,0 21 11 O - 10 -
12.08.2018 00:00:00 26,0 17,0 15 8 O - 10 -
11.08.2018 23:00:00 25,3 17,4 11 6 NNO 1017,8 10 0,0
11.08.2018 22:00:00 25,0 18,0 9 5 NNO - 10 -
11.08.2018 21:00:00 26,0 18,0 9 5 ONO - 10 -
11.08.2018 20:00:00 26,4 17,8 15 8 O 1017,0 10 -
11.08.2018 19:00:00 28,0 16,0 16 9 O - 10 -
11.08.2018 18:00:00 28,0 17,0 18 10 NO - 10 -
11.08.2018 17:00:00 31,3 17,2 16 9 WZW 1015,8 10 0,0
11.08.2018 16:00:00 33,0 16,0 11 6 Z - 10 -
11.08.2018 15:00:00 33,0 16,0 9 5 ZW - 10 -
11.08.2018 14:00:00 32,7 16,7 9 5 Z 1016,9 10 -
11.08.2018 13:00:00 32,0 16,0 11 6 ZZO - 10 -
11.08.2018 12:00:00 31,0 17,0 15 8 OZO - 10 -
11.08.2018 11:00:00 30,4 17,2 16 9 O 1018,1 10 0,0
11.08.2018 10:00:00 29,0 18,0 9 5 O - 10 -
11.08.2018 09:00:00 27,0 19,0 4 2 - - 10 -
11.08.2018 08:00:00 24,4 19,4 4 2 - 1018,0 10 -
11.08.2018 07:00:00 21,0 18,0 4 2 - - 10 -
11.08.2018 06:00:00 20,0 18,0 4 2 NW - 10 -
11.08.2018 05:00:00 21,3 17,2 4 2 - 1017,6 10 0,0
11.08.2018 04:00:00 22,0 18,0 8 4 O - 10 -
11.08.2018 03:00:00 22,0 19,0 5 3 O - 10 -
11.08.2018 02:00:00 21,7 19,0 4 2 - 1018,2 10 -
11.08.2018 01:00:00 23,0 19,0 8 4 O - 10 -
11.08.2018 00:00:00 23,0 21,0 4 2 ONO - 10 -
10.08.2018 23:00:00 23,4 20,8 5 3 NO 1018,1 10 0,0
10.08.2018 22:00:00 26,0 21,0 5 3 O - 10 -
10.08.2018 21:00:00 27,0 21,0 5 3 ZZW - 10 -
10.08.2018 20:00:00 29,0 20,5 8 4 Z 1017,2 10 -
10.08.2018 19:00:00 30,0 20,0 13 7 ZZW - 10 -
10.08.2018 18:00:00 32,0 19,0 11 6 WZW - 10 -
10.08.2018 17:00:00 32,1 19,0 9 5 ZW 1017,5 10 0,0
10.08.2018 16:00:00 32,0 18,0 11 6 ZW - 10 -
10.08.2018 15:00:00 31,0 20,0 13 7 W - 10 -
10.08.2018 14:00:00 31,0 19,2 9 5 ZZW 1018,7 10 -
10.08.2018 13:00:00 31,0 18,0 9 5 - - 10 -
10.08.2018 12:00:00 30,0 18,0 11 6 WZW - 10 -
10.08.2018 11:00:00 29,8 20,8 9 5 ZZO 1018,9 10 0,0
10.08.2018 10:00:00 29,0 22,0 5 3 - - 10 -
10.08.2018 09:00:00 28,0 21,0 4 2 - - 10 -
10.08.2018 08:00:00 25,1 20,5 5 3 O 1018,2 10 -
10.08.2018 07:00:00 23,0 20,0 9 5 O - 10 -
10.08.2018 06:00:00 23,0 20,0 8 4 ONO - 10 -
10.08.2018 05:00:00 22,8 19,6 8 4 O 1016,5 10 0,0
10.08.2018 04:00:00 23,0 20,0 8 4 O - 10 -
10.08.2018 03:00:00 23,0 21,0 11 6 O - 10 -
10.08.2018 02:00:00 22,9 21,3 4 2 - 1016,7 10 -
10.08.2018 01:00:00 25,0 21,0 8 4 O - 10 -
10.08.2018 00:00:00 24,0 22,0 5 3 O - 10 -
09.08.2018 23:00:00 24,5 22,3 4 2 ONO 1016,4 10 0,0
09.08.2018 22:00:00 25,0 23,0 2 1 - - 10 -
09.08.2018 21:00:00 27,0 23,0 4 2 - - 10 -
09.08.2018 20:00:00 28,8 22,6 9 5 ZZW 1014,8 10 -
09.08.2018 19:00:00 31,0 21,0 9 5 ZZW - 10 -
09.08.2018 18:00:00 31,0 20,0 13 7 ZZW - 10 -
09.08.2018 17:00:00 33,2 18,1 11 6 ZW 1014,6 10 0,0
09.08.2018 16:00:00 34,0 18,0 11 6 WZW - 10 -
09.08.2018 15:00:00 33,0 20,0 11 6 ZW - 10 -
09.08.2018 14:00:00 33,5 18,2 9 5 Z 1015,6 10 -
09.08.2018 13:00:00 33,0 17,0 8 4 - - 10 -
09.08.2018 12:00:00 - - - - - - - -
09.08.2018 11:00:00 30,0 21,6 4 2 - 1016,2 10 0,0
09.08.2018 10:00:00 29,0 20,0 4 2 - - 10 -
09.08.2018 09:00:00 26,0 21,0 4 2 - - 10 -
09.08.2018 08:00:00 24,2 20,8 2 1 - 1016,0 10 -
09.08.2018 07:00:00 21,0 20,0 2 1 - - 10 -
09.08.2018 06:00:00 21,0 20,0 2 1 - - 10 -
09.08.2018 05:00:00 21,1 20,6 4 2 N 1015,1 6 0,0
09.08.2018 04:00:00 22,0 21,0 4 2 - - 8 -
09.08.2018 03:00:00 23,0 22,0 5 3 N - 8 -
09.08.2018 02:00:00 23,4 21,9 8 4 O 1015,2 10 -
09.08.2018 01:00:00 24,0 23,0 5 3 O - 10 -

tt = temperatuur
td = dauwpunt
ff = windsnelheid
dd = windrichting
ppp = luchtdruk
vv = zicht
rr = neerslag

Weerstations in de omgeving